TimeMST,TemperatureF,Dew PointF,Humidity,Sea Level PressureIn,VisibilityMPH,Wind Direction,Wind SpeedMPH,Gust SpeedMPH,PrecipitationIn,Events,Conditions,WindDirDegrees,DateUTC
12:53 AM,9.0,5.0,84,30.06,10.0,NW,3.5,-,N/A,,Clear,320,2012-12-11 07:53:00
1:53 AM,8.1,5.0,87,30.07,10.0,North,4.6,-,N/A,,Clear,350,2012-12-11 08:53:00
2:53 AM,6.1,1.9,83,30.06,10.0,NW,6.9,-,N/A,,Clear,320,2012-12-11 09:53:00
3:53 AM,7.0,1.9,80,30.04,10.0,WNW,4.6,-,N/A,,Clear,300,2012-12-11 10:53:00
4:53 AM,9.0,3.9,80,30.03,10.0,NNE,5.8,-,N/A,,Clear,20,2012-12-11 11:53:00
5:53 AM,10.0,5.0,80,30.04,10.0,North,4.6,-,N/A,,Clear,350,2012-12-11 12:53:00
6:53 AM,5.0,1.9,87,30.06,10.0,NNE,3.5,-,N/A,,Clear,20,2012-12-11 13:53:00
7:53 AM,6.1,1.9,83,30.04,10.0,Calm,Calm,-,N/A,,Clear,0,2012-12-11 14:53:00
8:53 AM,14.0,10.0,84,29.99,10.0,Calm,Calm,-,N/A,,Clear,0,2012-12-11 15:53:00
9:53 AM,15.1,10.9,84,29.98,10.0,Calm,Calm,-,N/A,,Clear,0,2012-12-11 16:53:00
10:53 AM,21.9,12.9,68,29.93,10.0,Calm,Calm,-,N/A,,Clear,0,2012-12-11 17:53:00
11:53 AM,26.1,14.0,60,29.88,10.0,East,6.9,-,N/A,,Clear,100,2012-12-11 18:53:00
12:53 PM,28.9,14.0,54,29.87,10.0,West,3.5,-,N/A,,Clear,270,2012-12-11 19:53:00
1:53 PM,30.9,14.0,50,29.84,10.0,SE,3.5,-,N/A,,Clear,140,2012-12-11 20:53:00
2:53 PM,30.9,14.0,50,29.83,10.0,South,5.8,-,N/A,,Partly Cloudy,180,2012-12-11 21:53:00
3:53 PM,30.0,14.0,51,29.84,10.0,SW,6.9,-,N/A,,Clear,230,2012-12-11 22:53:00
4:53 PM,30.9,15.1,52,29.83,10.0,SW,8.1,-,N/A,,Clear,230,2012-12-11 23:53:00
5:53 PM,28.9,14.0,54,29.83,10.0,WSW,4.6,-,N/A,,Clear,250,2012-12-12 00:53:00
6:53 PM,28.9,14.0,54,29.85,10.0,SW,6.9,-,N/A,,Clear,230,2012-12-12 01:53:00
7:53 PM,28.9,16.0,58,29.83,10.0,SW,6.9,-,N/A,,Clear,220,2012-12-12 02:53:00
8:53 PM,28.9,16.0,58,29.81,10.0,WSW,9.2,-,N/A,,Clear,240,2012-12-12 03:53:00
9:53 PM,30.9,16.0,54,29.78,10.0,WSW,6.9,-,N/A,,Clear,250,2012-12-12 04:53:00
10:53 PM,30.2,15.8,55,29.65,10.0,SSW,6.9,-,N/A,,Clear,210,2012-12-12 05:53:00
11:53 PM,30.0,15.1,54,29.71,10.0,South,9.2,-,N/A,,Clear,190,2012-12-12 06:53:00